Broomfield, CO

8:07 AM MDT on October 18, 2017 (GMT -0600)
Jeffco

Weather History for KBJC - January, 2014

Change the Weather History Date:

Wednesday, January 1, 2014

  Actual Average Record
Temperature  
Mean Temperature 33 °F -  
Max Temperature 42 °F 45 °F 69 °F (1997)
Min Temperature 24 °F 25 °F 8 °F (1985)
Degree Days  
Heating Degree Days 32    
Moisture  
Dew Point 25 °F    
Average Humidity 71    
Maximum Humidity 93    
Minimum Humidity 39    
Precipitation  
Precipitation 0.00 in - - ()
Sea Level Pressure  
Sea Level Pressure 30.08 in    
Wind  
Wind Speed 8 mph (North)    
Max Wind Speed 18 mph    
Max Gust Speed 30 mph    
Visibility 10 miles    
Events Snow    
Averages and records for this station are not official NWS values.
T = Trace of Precipitation, MM = Missing Value Source: NWS Daily Summary

Daily Weather History Graph

Daily Weather History Graph

Search for Another Location

Airport or City:

Trip Planner

Search our weather history database for the weather conditions in past years. The results will help you decide how hot, cold, wet, or windy it might be!

Date:

Astronomy

Jan. 01, 2014 Rise Set
Actual Time 7:22 AM MST 4:46 PM MST
Civil Twilight 6:51 AM MST 5:16 PM MST
Nautical Twilight 6:17 AM MST 5:50 PM MST
Astronomical Twilight 5:45 AM MST 6:23 PM MST
Moon 7:14 AM MST (1/1) 5:34 PM MST (1/1)
Length of Visible Light 10h 24m
Length of Day
9h 24m
New Moon, 0% of the Moon is Illuminated
Jan 1
New Moon
Jan 7
First Quarter
Jan 15
Full
Jan 23
Last Quarter
Jan 30
New

Hourly Weather History & Observations

Time (MST) Temp. Windchill Dew Point Humidity Pressure Visibility Wind Dir Wind Speed Gust Speed Precip Events Conditions
12:15 AM 42.8 °F 38.0 °F 19.4 °F 39% 29.91 in 10.0 mi NNW 8.1 mph - N/A   Scattered Clouds
12:35 AM 42.8 °F 37.5 °F 19.4 °F 39% 29.91 in 10.0 mi WNW 9.2 mph - N/A   Scattered Clouds
12:55 AM 42.8 °F 38.0 °F 19.4 °F 39% 29.90 in 10.0 mi NNW 8.1 mph - N/A   Scattered Clouds
1:15 AM 41.0 °F 34.3 °F 19.4 °F 42% 29.89 in 10.0 mi WNW 11.5 mph - N/A   Scattered Clouds
1:34 AM 41.0 °F 33.9 °F 21.2 °F 45% 29.89 in 10.0 mi West 12.7 mph - N/A   Clear
1:55 AM 42.8 °F 36.2 °F 23.0 °F 46% 29.88 in 10.0 mi West 12.7 mph - N/A   Clear
2:15 AM 42.8 °F 37.0 °F 23.0 °F 46% 29.88 in 10.0 mi WNW 10.4 mph - N/A   Clear
2:35 AM 39.2 °F 33.6 °F 23.0 °F 52% 29.89 in 10.0 mi NW 8.1 mph - N/A   Scattered Clouds
2:55 AM 37.4 °F 32.8 °F 21.2 °F 52% 29.90 in 10.0 mi NNE 5.8 mph - N/A   Scattered Clouds
3:15 AM 41.0 °F 35.2 °F 21.2 °F 45% 29.92 in 10.0 mi NNW 9.2 mph - N/A   Clear
3:35 AM 41.0 °F 33.9 °F 23.0 °F 49% 29.91 in 10.0 mi NW 12.7 mph 16.1 mph N/A   Scattered Clouds
3:55 AM 39.2 °F 34.2 °F 24.8 °F 56% 29.91 in 10.0 mi NW 6.9 mph - N/A   Clear
4:15 AM 41.0 °F 35.8 °F 26.6 °F 57% 29.92 in 10.0 mi WSW 8.1 mph - N/A   Clear
4:35 AM 41.0 °F 36.4 °F 24.8 °F 53% 29.93 in 10.0 mi WSW 6.9 mph - N/A   Clear
4:54 AM 41.0 °F 39.0 °F 24.8 °F 53% 29.93 in 10.0 mi North 3.5 mph - N/A   Clear
5:53 AM 39.2 °F - 21.2 °F 49% 29.96 in 20.0 mi Calm Calm - N/A   Mostly Cloudy
6:53 AM 39.2 °F 37.0 °F 21.2 °F 49% 30.02 in 30.0 mi North 3.5 mph - N/A   Mostly Cloudy
7:48 AM 33.8 °F 25.3 °F 28.4 °F 81% 30.08 in 30.0 mi NNE 11.5 mph - N/A   Overcast
8:20 AM 32.0 °F 25.6 °F 30.2 °F 93% 30.12 in 25.0 mi NNW 6.9 mph - N/A Snow Light Snow
8:35 AM 32.0 °F 24.8 °F 30.2 °F 93% 30.12 in 0.5 mi North 8.1 mph - N/A Snow Snow
8:50 AM 32.0 °F 21.2 °F 30.2 °F 93% 30.12 in 3.0 mi North 16.1 mph - N/A Snow Light Snow
9:48 AM 33.8 °F 30.8 °F 30.2 °F 87% 30.14 in 10.0 mi NNE 3.5 mph - N/A   Overcast
10:47 AM 35.6 °F 31.7 °F 32.0 °F 87% 30.15 in 10.0 mi East 4.6 mph - N/A   Overcast
11:50 AM 35.6 °F 29.9 °F 30.2 °F 81% 30.14 in 10.0 mi NE 6.9 mph - N/A   Mostly Cloudy
12:50 PM 35.6 °F 29.9 °F 30.2 °F 81% 30.12 in 30.0 mi ENE 6.9 mph - N/A   Mostly Cloudy
1:47 PM 39.2 °F 35.0 °F 28.4 °F 65% 30.13 in 30.0 mi ENE 5.8 mph - N/A   Mostly Cloudy
2:46 PM 37.4 °F 32.8 °F 28.4 °F 70% 30.17 in 50.0 mi NNE 5.8 mph - N/A   Mostly Cloudy
3:03 PM 37.4 °F 27.8 °F 30.2 °F 75% 30.18 in 40.0 mi NNE 17.3 mph - N/A   Mostly Cloudy
3:33 PM 35.6 °F 25.5 °F 28.4 °F 75% 30.20 in 2.0 mi NNE 17.3 mph - N/A Snow Snow
3:47 PM 32.0 °F 20.5 °F 28.4 °F 87% 30.22 in 2.0 mi North 18.4 mph 29.9 mph N/A Snow Light Snow
4:20 PM 28.4 °F 19.1 °F 26.6 °F 93% 30.25 in 2.0 mi NNE 10.4 mph - N/A Snow Light Snow
4:50 PM 28.4 °F 22.2 °F 26.6 °F 93% 30.27 in 10.0 mi NE 5.8 mph - N/A   Overcast
5:49 PM 28.4 °F - 26.6 °F 93% 30.28 in 15.0 mi Calm Calm - N/A   Mostly Cloudy
6:49 PM 26.6 °F - 24.8 °F 93% 30.25 in 15.0 mi Calm Calm - N/A   Scattered Clouds
7:47 PM 26.6 °F 21.2 °F 23.0 °F 86% 30.27 in 15.0 mi Variable 4.6 mph - N/A   Partly Cloudy
8:50 PM 24.8 °F 20.5 °F 23.0 °F 93% 30.26 in 20.0 mi Variable 3.5 mph - N/A   Partly Cloudy
9:51 PM 24.8 °F 17.9 °F 23.0 °F 93% 30.25 in 20.0 mi South 5.8 mph - N/A   Partly Cloudy
10:15 PM 26.6 °F 19.1 °F 23.0 °F 86% 30.24 in 10.0 mi South 6.9 mph - N/A   Clear
10:34 PM 26.6 °F 20.0 °F 23.0 °F 86% 30.23 in 10.0 mi South 5.8 mph - N/A   Clear
10:55 PM 24.8 °F - 21.2 °F 86% 30.23 in 10.0 mi Calm Calm - N/A   Clear
11:15 PM 26.6 °F 22.6 °F 23.0 °F 86% 30.22 in 10.0 mi SE 3.5 mph - N/A   Clear
11:35 PM 24.8 °F 16.9 °F 21.2 °F 86% 30.21 in 10.0 mi SSE 6.9 mph - N/A   Clear
11:55 PM 24.8 °F 16.1 °F 21.2 °F 86% 30.21 in 10.0 mi SSE 8.1 mph - N/A   Clear